Japanese version Home page |
Updated on September 17, 2005 |
Profile
|
Orbital ElementsThe following orbital elements are taken from NK MPO 66354: Epoch 2005 Aug. 18.0 TT = JDT 2453600.5 T 2004 Aug. 6.5428 TT MPC q 4.106207 (2000.0) P Q n 0.0898124 Peri. 239.8046 -0.8906348 +0.4542747 a 4.938314 Node 327.2016 -0.4033990 -0.8097459 e 0.168500 Incl. 2.1267 -0.2098542 -0.3714109 P 11.0 From 52 observations 2004 Mar. 27-July 12.
|
Magnitudes Graphm1 = 9.5 + 5 log d + 10.0 log r
|
The orbital elements are published at the MPC Ephemerides and Orbital Elements.
|